Location: Grums
(59.3529°N, 13.1129°E)
Time: 21:49:19
(UTC+02:00)

Nauka - Visible Passes

Search period start: 25 September 2021 00:00
Search period end: 05 October 2021 00:00
Orbit: 419 x 423 km, 51.6° (Epoch: 24 September)

Date Brightness Start Highest point End Pass type
(mag) Time Alt. Az. Time Alt. Az. Time Alt. Az.
25 Sep ? 20:15:51 10° SW 20:18:33 22° S 20:20:21 15° SE visible
25 Sep ? 21:52:22 10° WSW 21:53:21 14° SW 21:53:21 14° SW visible
26 Sep ? 21:05:26 10° WSW 21:07:57 19° SSW 21:08:09 19° S visible
27 Sep ? 20:18:35 10° WSW 20:21:13 21° S 20:22:59 15° SSE visible
27 Sep ? 21:55:51 10° SW 21:55:58 10° SW 21:55:58 10° SW visible
28 Sep ? 19:31:45 10° SW 19:34:27 22° S 19:37:08 10° SE visible
28 Sep ? 21:08:34 10° WSW 21:10:31 15° SSW 21:10:48 14° SSW visible
29 Sep ? 20:21:31 10° WSW 20:23:47 17° SSW 20:25:39 12° SSE visible
30 Sep ? 19:34:33 10° WSW 19:37:03 19° SSW 19:39:33 10° SE visible
01 Oct ? 20:25:02 10° SW 20:26:17 12° SSW 20:27:31 10° S visible
02 Oct ? 19:37:41 10° WSW 19:39:34 14° SSW 19:41:28 10° S visible
